Overview Statistics Trail Chart Weather Telemetry Raw packets
 

This is the latest recevied weather packets stored in our database for station/object W8RSN-13. If no packets are shown the sender has not sent any weather packets the latest 10 day(s).

<< 51 52 53 54 55 56 57 >>
Time Temp. Humidity Pressure Rain* Wind** Luminosity Snow
1788333867 17.78° C 71% 1018 hPa - - - -
1788333566 18.33° C 70% 1017.9 hPa - - - -
1788333265 18.33° C 70% 1017.7 hPa - - - -
1788332965 17.78° C 69% 1017.6 hPa - - - -
1788332664 17.78° C 68% 1017.7 hPa - - - -
1788332363 17.78° C 67% 1017.7 hPa - - - -
1788332062 18.33° C 68% 1017.8 hPa - - - -
1788331761 17.78° C 68% 1017.8 hPa - - - -
1788331460 18.33° C 69% 1017.7 hPa - - - -
1788331159 18.33° C 69% 1017.7 hPa - - - -
1788330858 18.33° C 67% 1017.6 hPa - - - -
1788330558 18.33° C 67% 1017.7 hPa - - - -
1788330257 18.89° C 66% 1017.7 hPa - - - -
1788329956 18.89° C 67% 1017.6 hPa - - - -
1788329675 18.89° C 67% 1017.6 hPa - - - -
1788329374 18.89° C 64% 1017.5 hPa - - - -
1788329073 19.44° C 64% 1017.4 hPa - - - -
1788328772 19.44° C 60% 1017.5 hPa - - - -
1788328471 19.44° C 60% 1017.3 hPa - - - -
1788328170 19.44° C 61% 1017.3 hPa - - - -
1788327870 19.44° C 60% 1017.6 hPa - - - -
1788327569 19.44° C 61% 1017.4 hPa - - - -
1788327268 19.44° C 60% 1017.3 hPa - - - -
1788326967 20° C 62% 1017.6 hPa - - - -
1788326666 19.44° C 62% 1017.5 hPa - - - -

* Rain since midnight (hover to see other rain measurements)
** Current wind speed in m/s (hover to see current wind gust speed)